User: anonymous   Login
Location: Spradlin Observatory
(33.4706°N, 86.3221°W)
Time: 10:03:26
(UTC-06:00)
Language:

COSMOS 2406 - Orbit

View from above orbital plane
View from above orbital plane
View from above satellite
View from above satellite

Ground track
Ground track

The orbit data is extracted from the following two-line orbital elements,

1 28352U 04021A   15063.59137334  .00000062  00000-0  60079-4 0  9991
2 28352 071.0034 069.0548 0017470 280.3402 219.1700 14.11401371552945
Epoch (UTC): 04 March 2015 14:11:34
Eccentricity: 0.0017470
inclination: 71.0034°
perigee height: 842 km
apogee height: 867 km
right ascension of ascending node: 69.0548°
argument of perigee: 280.3402°
revolutions per day: 14.11401371
mean anomaly at epoch: 219.1700°
orbit number at epoch: 55294

The dashed part of the orbit path shows where the satellite is in the earth's shadow,  

DLR